| time (UTC) | temp C | wind direction | speed KPH | gust KPH | rain 1hr cm | rain 24hr cm | rain mn cm | humidity % | barometer mb |
| 20260510094555 | 17 | 26 | 0.0 | 0.0 | 0.00 | 0.00 | 0.00 | 1 | 1012.6 |
| 20260510093103 | 17 | 26 | 0.0 | 0.0 | 0.00 | 0.00 | 0.00 | 2 | 1012.4 |
| 20260510091546 | 17 | 26 | 0.0 | 0.0 | 0.00 | 0.00 | 0.00 | 3 | 1012.6 |
| 20260510090049 | 17 | 26 | 0.0 | 0.0 | 0.00 | 0.00 | 0.00 | 4 | 1012.4 |
| 20260510084538 | 17 | 26 | 0.0 | 0.0 | 0.00 | 0.00 | 0.00 | 4 | 1012.1 |
| 20260510083039 | 17 | 26 | 0.0 | 0.0 | 0.00 | 0.00 | 0.00 | 4 | 1011.8 |
| 20260510081541 | 17 | 26 | 0.0 | 0.0 | 0.00 | 0.00 | 0.00 | 4 | 1011.5 |
| 20260510080029 | 17 | 26 | 0.0 | 0.0 | 0.00 | 0.00 | 0.00 | 5 | 1011.6 |
| 20260510074523 | 17 | 26 | 0.0 | 0.0 | 0.00 | 0.00 | 0.00 | 6 | 1011.4 |
| 20260510073019 | 17 | 26 | 0.0 | 0.0 | 0.00 | 0.00 | 0.00 | 8 | 1011.4 |
| 20260510071518 | 17 | 26 | 0.0 | 0.0 | 0.00 | 0.00 | 0.00 | 10 | 1011.3 |
| 20260510070022 | 17 | 26 | 0.0 | 0.0 | 0.00 | 0.00 | 0.00 | 9 | 1011.4 |
| 20260510064517 | 17 | 26 | 0.0 | 0.0 | 0.00 | 0.00 | 0.00 | 11 | 1011.6 |
| 20260510063018 | 18 | 26 | 0.0 | 0.0 | 0.00 | 0.00 | 0.00 | 15 | 1011.4 |
| 20260510061514 | 18 | 26 | 0.0 | 0.0 | 0.00 | 0.00 | 0.00 | 14 | 1011.5 |
| 20260510060023 | 18 | 26 | 0.0 | 0.0 | 0.00 | 0.00 | 0.00 | 14 | 1011.7 |
| 20260510054516 | 18 | 26 | 0.0 | 0.0 | 0.00 | 0.00 | 0.00 | 17 | 1011.5 |
| 20260510053008 | 18 | 26 | 0.0 | 0.0 | 0.00 | 0.00 | 0.00 | 21 | 1011.5 |
| 20260510051506 | 18 | 26 | 0.0 | 0.0 | 0.00 | 0.00 | 0.00 | 25 | 1011.2 |
| 20260510050003 | 18 | 26 | 0.0 | 0.0 | 0.00 | 0.00 | 0.00 | 29 | 1010.9 |
| 20260510044612 | 18 | 26 | 0.0 | 0.0 | 0.00 | 0.00 | 0.00 | 32 | 1010.9 |
| 20260510043100 | 19 | 26 | 0.0 | 0.0 | 0.00 | 0.00 | 0.00 | 36 | 1010.8 |
| 20260510041554 | 19 | 26 | 0.0 | 0.0 | 0.00 | 0.00 | 0.00 | 39 | 1010.8 |
| 20260510040050 | 20 | 26 | 0.0 | 0.0 | 0.00 | 0.00 | 0.00 | 43 | 1010.7 |
| 20260510034546 | 20 | 26 | 0.0 | 0.0 | 0.00 | 0.00 | 0.00 | 45 | 1010.5 |
| 20260510033056 | 20 | 26 | 0.0 | 0.0 | 0.00 | 0.00 | 0.00 | 46 | 1010.6 |
| 20260510031539 | 20 | 26 | 0.0 | 0.0 | 0.00 | 0.00 | 0.00 | 49 | 1010.5 |
| 20260510030015 | 20 | 26 | 0.0 | 0.0 | 0.00 | 0.00 | 0.00 | 50 | 1010.3 |
| 20260510024509 | 20 | 26 | 0.0 | 0.0 | 0.00 | 0.00 | 0.00 | 52 | 1010.0 |
| 20260510023049 | 21 | 26 | 0.0 | 0.0 | 0.00 | 0.00 | 0.00 | 52 | 1009.7 |
| 20260510021545 | 21 | 26 | 0.0 | 0.0 | 0.00 | 0.00 | 0.00 | 55 | 1009.6 |
| 20260510020041 | 21 | 26 | 0.0 | 0.0 | 0.00 | 0.00 | 0.00 | 58 | 1009.3 |
| 20260510014540 | 21 | 26 | 0.0 | 0.0 | 0.00 | 0.00 | 0.00 | 61 | 1009.1 |
| 20260510013036 | 22 | 26 | 0.0 | 0.0 | 0.00 | 0.00 | 0.00 | 63 | 1009.0 |
| 20260510011531 | 22 | 26 | 0.0 | 0.0 | 0.00 | 0.00 | 0.00 | 65 | 1008.9 |
| 20260510010028 | 23 | 26 | 0.0 | 0.0 | 0.00 | 0.00 | 0.00 | 67 | 1008.6 |
| 20260510004521 | 23 | 26 | 0.0 | 0.0 | 0.00 | 0.00 | 0.00 | 68 | 1008.5 |
| 20260510003019 | 24 | 26 | 0.0 | 0.0 | 0.00 | 0.00 | 0.00 | 69 | 1008.3 |
| 20260510001514 | 24 | 26 | 0.0 | 0.0 | 0.00 | 0.00 | 0.00 | 68 | 1008.2 |
| 20260510000017 | 25 | 26 | 0.0 | 0.0 | 0.00 | 0.00 | 0.00 | 68 | 1008.1 |
| 20260509234507 | 25 | 26 | 0.0 | 0.0 | 0.00 | 0.00 | 0.00 | 68 | 1007.9 |
| 20260509233007 | 25 | 26 | 0.0 | 0.0 | 0.00 | 0.00 | 0.00 | 68 | 1007.8 |
| 20260509231600 | 26 | 26 | 0.0 | 0.0 | 0.00 | 0.00 | 0.00 | 67 | 1007.7 |
| 20260509230056 | 26 | 26 | 0.0 | 0.0 | 0.00 | 0.00 | 0.00 | 63 | 1007.6 |
| 20260509224551 | 27 | 26 | 0.0 | 0.0 | 0.00 | 0.00 | 0.00 | 60 | 1007.6 |
| 20260509223056 | 27 | 26 | 0.0 | 0.0 | 0.00 | 0.00 | 0.00 | 60 | 1007.6 |
| 20260509221544 | 27 | 31 | 0.0 | 0.0 | 0.00 | 0.00 | 0.00 | 61 | 1007.5 |
| 20260509220041 | 27 | 359 | 0.0 | 0.0 | 0.00 | 0.00 | 0.00 | 60 | 1007.4 |
| 20260509214536 | 28 | 314 | 0.0 | 0.0 | 0.00 | 0.00 | 0.00 | 57 | 1007.3 |
| 20260509213033 | 28 | 343 | 0.0 | 0.0 | 0.00 | 0.00 | 0.00 | 57 | 1007.4 |
| 20260509211527 | 28 | 8 | 0.0 | 0.0 | 0.00 | 0.00 | 0.00 | 54 | 1007.6 |
| 20260509210023 | 28 | 17 | 0.0 | 0.0 | 0.00 | 0.00 | 0.00 | 54 | 1007.6 |
| 20260509204520 | 28 | 17 | 0.0 | 0.0 | 0.00 | 0.00 | 0.00 | 53 | 1007.8 |
| 20260509203019 | 28 | 41 | 0.0 | 0.0 | 0.00 | 0.00 | 0.00 | 51 | 1007.8 |
| 20260509201513 | 29 | 318 | 0.0 | 0.0 | 0.00 | 0.00 | 0.00 | 45 | 1008.1 |
| 20260509200009 | 29 | 315 | 0.0 | 0.0 | 0.00 | 0.00 | 0.00 | 49 | 1008.4 |
| 20260509194505 | 28 | 317 | 0.0 | 0.0 | 0.00 | 0.00 | 0.00 | 52 | 1008.5 |
| 20260509193001 | 27 | 287 | 0.0 | 0.0 | 0.00 | 0.00 | 0.00 | 51 | 1008.5 |
| 20260509184601 | 27 | 299 | 0.0 | 0.0 | 0.00 | 0.00 | 0.00 | 55 | 1008.7 |
| 20260509183052 | 26 | 323 | 0.0 | 0.0 | 0.00 | 0.00 | 0.00 | 57 | 1009.0 |
| 20260509174541 | 25 | 340 | 0.0 | 0.0 | 0.00 | 0.00 | 0.00 | 61 | 1009.2 |
| 20260509170027 | 26 | 191 | 0.0 | 0.0 | 0.00 | 0.00 | 0.00 | 60 | 1009.4 |
| 20260509164522 | 25 | 198 | 0.0 | 0.0 | 0.00 | 0.00 | 0.00 | 61 | 1009.4 |
| 20260509163019 | 25 | 50 | 0.0 | 0.0 | 0.00 | 0.00 | 0.00 | 62 | 1009.3 |
| 20260509161514 | 25 | 303 | 0.0 | 0.0 | 0.00 | 0.00 | 0.00 | 66 | 1009.3 |
| 20260509150007 | 20 | 348 | 0.0 | 0.0 | 0.00 | 0.00 | 0.00 | 54 | 1009.7 |
| 20260509144502 | 19 | 359 | 0.0 | 0.0 | 0.00 | 0.00 | 0.00 | 43 | 1009.8 |
| 20260509143100 | 18 | 359 | 0.0 | 0.0 | 0.00 | 0.00 | 0.00 | 36 | 1009.8 |
| 20260509141555 | 17 | 4 | 0.0 | 0.0 | 0.00 | 0.00 | 0.00 | 23 | 1010.0 |
| 20260509140051 | 17 | 4 | 0.0 | 0.0 | 0.00 | 0.00 | 0.00 | 3 | 1010.1 |
| 20260509133049 | 15 | 4 | 0.0 | 0.0 | 0.00 | 0.00 | 0.00 | 1 | 1010.3 |
| 20260509131538 | 15 | 4 | 0.0 | 0.0 | 0.00 | 0.00 | 0.00 | 1 | 1010.1 |
| 20260509123028 | 13 | 4 | 0.0 | 0.0 | 0.00 | 0.00 | 0.00 | 4 | 1009.7 |
| 20260509121527 | 13 | 4 | 0.0 | 0.0 | 0.00 | 0.00 | 0.00 | 5 | 1009.6 |
| 20260509120020 | 13 | 4 | 0.0 | 0.0 | 0.00 | 0.00 | 0.00 | 7 | 1009.4 |
| 20260509114515 | 13 | 4 | 0.0 | 0.0 | 0.00 | 0.00 | 0.00 | 8 | 1009.2 |
| 20260509113014 | 13 | 4 | 0.0 | 0.0 | 0.00 | 0.00 | 0.00 | 8 | 1009.2 |
| 20260509111511 | 13 | 4 | 0.0 | 0.0 | 0.00 | 0.00 | 0.00 | 9 | 1008.8 |
| 20260509110004 | 13 | 4 | 0.0 | 0.0 | 0.00 | 0.00 | 0.00 | 9 | 1008.6 |
| 20260509104503 | 13 | 4 | 0.0 | 0.0 | 0.00 | 0.00 | 0.00 | 9 | 1008.1 |
| 20260509101552 | 13 | 4 | 0.0 | 0.0 | 0.00 | 0.00 | 0.00 | 9 | 1007.9 |
| 20260509100054 | 13 | 4 | 0.0 | 0.0 | 0.00 | 0.00 | 0.00 | 9 | 1008.0 |